Location: Cuiabá
(15.6014°S, 56.0979°W)
Time: 10:25:30
(UTC-04:00)

Envisat - Pass Details

Date: 01 December 2022
Orbit: 763 x 765 km, 98.2° (Epoch: 02 February)

Event Time Altitude Azimuth Distance (km) Brightness Sun altitude
Exits shadow 03:35:00 12° 4° (N) 2,124 5.0 -20.0°
Maximum altitude 03:39:36 69° 282° (WNW) 820 2.9 -19.0°
Drops below altitude 10° 03:44:40 10° 198° (SSW) 2,311 5.6 -18.0°
Sets 03:47:00 0° 196° (SSW) 3,242 6.4 -17.5°
